Location: Krakow
(50.0830°N, 19.9170°E)
Time: 21:21:46
(UTC+01:00)

Altair - Pass Details

Date: 02 December 2023
Orbit: 1501 x 1682 km, 47.2° (Epoch: 03 March)

Event Time Altitude Azimuth Distance (km) Brightness Sun altitude
Rises 09:22:28 0° 234° (SW) 4,797 10.2 12.7°
Reaches altitude 10° 09:25:39 10° 231° (SW) 3,789 9.7 12.9°
Maximum altitude 09:34:56 58° 156° (SSE) 1,767 8.7 13.6°
Drops below altitude 10° 09:43:55 10° 81° (E) 3,677 9.8 14.3°
Sets 09:46:58 0° 77° (ENE) 4,649 10.2 14.5°
